Date String (YYYY-MM-DD hh:mm:ss) UTC,Instrument flags,Ambient pressure (hPa),Sample flow (lpm),Bypass flow (lpm),Sample temperature (°C),Ambient temperature (°C),ASC tube jacket temperature (°C),LED temperature (°C),Box temperature (°C),Sample RH (%),Span deviation,Mass concentration (μg/m³),Mass concentration (μg/m³),Mass concentration (μg/m³)
DateTimeUTC,F1_M11,P_M11,Q1_M11,Q2_M11,T1_M11,T2_M11,T3_M11,T4_M11,T5_M11,U1_M11,ZSPAN_M11,X0_M11,X2_M11,X1_M11
2021-09-29 15:00:00,,0823.1,4.99,0.00,29.9,28.7,00.0,39.1,31.6,22.4,0002.4,0020.83,0005.90,0004.84
2021-09-29 15:01:00,,0823.1,5.00,0.00,30.0,28.8,00.0,39.1,31.7,22.3,0002.3,0021.54,0005.96,0004.86
2021-09-29 15:02:00,,0823.2,5.00,0.00,30.0,28.9,00.0,39.1,31.7,22.3,0002.5,0020.90,0006.01,0004.88
2021-09-29 15:03:00,,0823.2,5.01,0.00,30.0,28.9,00.0,39.1,31.8,22.2,0002.8,0021.44,0006.05,0004.90
2021-09-29 15:04:00,,0823.3,5.00,0.00,30.0,29.0,00.0,39.1,31.8,22.1,0002.9,0020.50,0006.08,0004.92
2021-09-29 15:05:00,,0823.3,5.00,0.00,30.0,29.1,00.0,39.1,31.8,22.1,0002.8,0020.50,0006.14,0004.94
2021-09-29 15:06:00,,0823.2,5.01,0.00,30.1,29.1,00.0,39.2,31.9,22.0,0002.7,0021.09,0006.22,0004.95
2021-09-29 15:07:00,,0823.3,4.99,0.00,30.1,29.1,00.0,39.2,31.9,22.0,0002.6,0020.66,0006.28,0004.95
2021-09-29 15:08:00,,0823.4,5.01,0.00,30.1,29.1,00.0,39.2,31.9,22.0,0002.4,0020.78,0006.27,0004.94
2021-09-29 15:09:00,,0823.4,4.99,0.00,30.1,29.1,00.0,39.2,31.9,22.0,0002.4,0020.56,0006.24,0004.94
2021-09-29 15:10:00,,0823.4,5.02,0.00,30.1,29.2,00.0,39.2,31.9,22.1,0002.4,0020.97,0006.24,0004.95
2021-09-29 15:11:00,,0823.3,4.98,0.00,30.1,29.2,00.0,39.2,31.9,22.1,0002.4,0020.09,0006.25,0004.98
2021-09-29 15:12:00,,0823.5,5.00,0.00,30.1,29.2,00.0,39.2,31.9,22.4,0002.4,0018.96,0006.23,0005.00
2021-09-29 15:13:00,,0823.4,5.01,0.00,30.2,29.3,00.0,39.2,31.9,22.5,0002.1,0019.05,0006.27,0004.99
2021-09-29 15:14:00,,0823.4,4.99,0.00,30.2,29.3,00.0,39.2,32.0,22.4,0001.9,0018.23,0006.29,0005.00
2021-09-29 15:15:00,,0823.4,5.01,0.00,30.2,29.3,00.0,39.3,32.0,22.3,0002.3,0018.22,0006.30,0005.00
2021-09-29 15:16:00,,0823.4,5.00,0.00,30.2,29.3,00.0,39.3,32.0,22.4,0002.3,0017.61,0006.24,0005.00
2021-09-29 15:17:00,,0823.4,5.00,0.00,30.2,29.3,00.0,39.3,32.0,22.4,0002.3,0017.59,0006.22,0005.02
2021-09-29 15:18:00,,0823.4,5.00,0.00,30.2,29.3,00.0,39.3,32.1,22.3,0002.3,0018.11,0006.19,0005.02
2021-09-29 15:19:00,,0823.4,5.01,0.00,30.2,29.4,00.0,39.3,32.0,22.2,0002.2,0017.92,0006.14,0005.02
2021-09-29 15:20:00,,0823.4,5.00,0.00,30.3,29.4,00.0,39.3,32.0,22.2,0002.3,0017.45,0006.16,0005.03
2021-09-29 15:21:00,,0823.5,4.99,0.00,30.3,29.4,00.0,39.3,32.0,22.3,0002.6,0016.17,0006.15,0005.02
2021-09-29 15:22:00,,0823.6,5.01,0.00,30.3,29.4,00.0,39.3,32.0,22.3,0002.4,0015.84,0006.16,0005.00
2021-09-29 15:23:00,,0823.6,4.99,0.00,30.3,29.4,00.0,39.3,32.0,22.2,0002.2,0016.16,0006.16,0004.99
2021-09-29 15:24:00,,0823.6,5.02,0.00,30.3,29.4,00.0,39.4,32.0,22.3,0002.4,0015.90,0006.14,0005.00
2021-09-29 15:25:00,,0823.6,4.99,0.00,30.3,29.4,00.0,39.4,32.0,22.3,0002.5,0016.14,0006.12,0005.00
2021-09-29 15:26:00,,0823.5,5.00,0.00,30.3,29.4,00.0,39.4,32.0,22.2,0002.4,0017.21,0006.13,0005.01
2021-09-29 15:27:00,,0823.6,5.00,0.00,30.3,29.4,00.0,39.4,32.0,22.2,0002.5,0018.44,0006.16,0005.02
2021-09-29 15:28:00,,0823.6,4.99,0.00,30.3,29.4,00.0,39.4,32.0,22.1,0002.3,0018.05,0006.17,0005.03
2021-09-29 15:29:00,,0823.6,5.01,0.00,30.3,29.3,00.0,39.4,32.0,22.2,0002.2,0018.96,0006.22,0005.04
2021-09-29 15:30:00,,0823.5,5.00,0.00,30.2,27.6,00.0,39.4,31.6,22.4,0002.5,0018.85,0006.26,0005.07
2021-09-29 15:31:00,,0823.5,5.00,0.00,30.1,26.8,00.0,39.3,31.3,22.5,0002.7,0018.86,0006.28,0005.09
2021-09-29 15:32:00,,0823.5,5.01,0.00,30.0,27.0,00.0,39.3,31.3,22.7,0002.6,0019.69,0006.29,0005.12
2021-09-29 15:33:00,,0823.5,5.00,0.00,29.9,27.3,00.0,39.2,31.4,22.7,0002.8,0021.13,0006.32,0005.16
2021-09-29 15:34:00,,0823.5,4.99,0.00,29.9,27.7,00.0,39.2,31.4,22.7,0002.9,0021.21,0006.36,0005.19
2021-09-29 15:35:00,,0823.6,5.00,0.00,29.9,28.0,00.0,39.2,31.5,22.6,0002.9,0021.56,0006.38,0005.21
2021-09-29 15:36:00,,0823.6,5.01,0.00,29.9,28.2,00.0,39.1,31.6,22.7,0002.6,0021.51,0006.40,0005.24
2021-09-29 15:37:00,,0823.6,4.99,0.00,29.9,28.3,00.0,39.1,31.6,22.7,0002.5,0020.69,0006.40,0005.25
2021-09-29 15:38:00,,0823.6,5.00,0.00,29.9,28.5,00.0,39.1,31.6,22.6,0002.5,0020.35,0006.40,0005.26
2021-09-29 15:39:00,,0823.6,5.00,0.00,29.9,28.6,00.0,39.1,31.7,22.7,0002.5,0020.07,0006.45,0005.28
2021-09-29 15:40:00,,0823.6,4.99,0.00,29.9,28.7,00.0,39.1,31.7,22.6,0002.7,0018.93,0006.42,0005.28
2021-09-29 15:41:00,,0823.5,5.01,0.00,29.9,28.8,00.0,39.1,31.7,22.5,0002.6,0018.39,0006.42,0005.29
2021-09-29 15:42:00,,0823.5,4.99,0.00,29.9,28.9,00.0,39.1,31.7,22.5,0002.5,0018.07,0006.38,0005.26
2021-09-29 15:43:00,,0823.5,5.00,0.00,30.0,28.9,00.0,39.1,31.7,22.4,0002.6,0017.75,0006.40,0005.24
2021-09-29 15:44:00,,0823.6,5.00,0.00,30.0,29.0,00.0,39.1,31.8,22.6,0002.7,0016.53,0006.38,0005.21
2021-09-29 15:45:00,,0823.5,5.01,0.00,30.0,29.0,00.0,39.1,31.8,22.7,0002.6,0016.04,0006.32,0005.19
2021-09-29 15:46:00,,0823.5,5.01,0.00,30.0,29.1,00.0,39.1,31.8,22.5,0002.5,0016.07,0006.29,0005.16
2021-09-29 15:47:00,,0823.5,5.00,0.00,30.1,29.1,00.0,39.1,31.9,22.9,0002.6,0015.98,0006.27,0005.14
2021-09-29 15:48:00,,0823.6,5.01,0.00,30.1,29.2,00.0,39.1,31.9,23.1,0002.6,0016.05,0006.31,0005.13
2021-09-29 15:49:00,,0823.6,5.00,0.00,30.1,29.2,00.0,39.1,31.9,22.5,0002.6,0016.25,0006.35,0005.11
2021-09-29 15:50:00,,0823.7,4.99,0.00,30.1,29.2,00.0,39.2,31.9,22.3,0002.7,0016.82,0006.25,0005.07
2021-09-29 15:51:00,,0823.6,5.01,0.00,30.1,29.2,00.0,39.2,31.9,22.3,0002.5,0016.92,0006.25,0005.05
2021-09-29 15:52:00,,0823.7,4.99,0.00,30.1,29.2,00.0,39.2,31.9,22.3,0002.4,0017.05,0006.25,0005.02
2021-09-29 15:53:00,,0823.7,5.01,0.00,30.1,29.3,00.0,39.2,31.9,22.1,0002.3,0017.55,0006.26,0005.01
2021-09-29 15:54:00,,0823.7,4.99,0.00,30.1,29.3,00.0,39.2,31.9,22.1,0002.1,0017.68,0006.25,0005.00
2021-09-29 15:55:00,,0823.7,5.01,0.00,30.1,29.3,00.0,39.2,31.9,22.1,0002.2,0018.15,0006.22,0004.99
2021-09-29 15:56:00,,0823.7,4.99,0.00,30.1,29.3,00.0,39.2,31.9,22.0,0002.6,0018.32,0006.23,0004.98
2021-09-29 15:57:00,,0823.7,5.00,0.00,30.1,29.3,00.0,39.2,31.9,22.2,0002.9,0017.72,0006.19,0004.98
2021-09-29 15:58:00,,0823.7,5.01,0.00,30.2,29.3,00.0,39.2,31.9,22.3,0003.2,0017.50,0006.18,0004.97
2021-09-29 15:59:00,,0823.7,4.99,0.00,30.2,29.1,00.0,39.2,31.9,22.5,0003.0,0018.32,0006.14,0004.97
